Weather History for Asheville, NC

Change the Weather History Date:

Thursday, April 18, 2013

  Actual Average Record
Temperature  
Mean Temperature 66 °F 56 °F  
Max Temperature 74 °F 69 °F 90 °F (1896)
Min Temperature 57 °F 43 °F 28 °F (1905)
Degree Days  
Heating Degree Days 0 9  
Month to date heating degree days 151 208  
Since 1 July heating degree days 3802 3980  
Cooling Degree Days 1 0  
Month to date cooling degree days 5 0  
Year to date cooling degree days 5 1  
Growing Degree Days 15 (Base 50)    
Moisture  
Dew Point 56 °F    
Average Humidity 75    
Maximum Humidity 100    
Minimum Humidity 49    
Precipitation  
Precipitation T in 0.11 in 1.24 in (1969)
Month to date precipitation 2.53 1.99  
Year to date precipitation 17.99 13.25  
Snow  
Snow 0.00 in 0.00 in 2.00 in (1983)
Month to date snowfall 0.0 0.6  
Since 1 July snowfall 0.5 9.8  
Snow Depth 0.00 in    
Sea Level Pressure  
Sea Level Pressure 30.08 in    
Wind  
Wind Speed 8 mph (SSE)    
Max Wind Speed 20 mph    
Max Gust Speed 26 mph    
Visibility 10 miles    
Events Rain    
T = Trace of Precipitation, MM = Missing Value Source: NWS Daily Summary

Daily Weather History Graph

Daily Weather History Graph

Search for Another Location

Airport:

Trip Planner

Search our weather history database for the weather conditions in past years. The results will help you decide how hot, cold, wet, or windy it might be!

Date:

Astronomy

Apr. 18, 2013 Rise Set
Actual Time 6:53 AM EDT 8:05 PM EDT
Civil Twilight 6:27 AM EDT 8:32 PM EDT
Nautical Twilight 5:55 AM EDT 9:03 PM EDT
Astronomical Twilight 5:23 AM EDT 9:36 PM EDT
Moon 1:06 PM EDT (4/18) 2:16 AM EDT (4/18)
Length of Visible Light 14h 05m
Length of Day
13h 12m
First Quarter, 51% of the Moon is Illuminated
Apr 18
First Quarter
Apr 25
Full
May 2
Last Quarter
May 9
New
May 18
First Quarter

Hourly Weather History & Observations

Time (EDT) Temp. Dew Point Humidity Pressure Visibility Wind Dir Wind Speed Gust Speed Precip Events Conditions
12:54 AM 57.9 °F 57.0 °F 97% 30.10 in 10.0 mi South 4.6 mph - N/A   Clear
1:54 AM 57.9 °F 55.9 °F 93% 30.08 in 10.0 mi Calm Calm - N/A   Clear
2:54 AM 59.0 °F 55.9 °F 90% 30.11 in 10.0 mi Calm Calm - N/A   Mostly Cloudy
3:54 AM 57.9 °F 55.9 °F 93% 30.12 in 10.0 mi Calm Calm - N/A   Mostly Cloudy
4:54 AM 57.0 °F 55.9 °F 96% 30.12 in 10.0 mi Calm Calm - N/A   Mostly Cloudy
5:05 AM 57.2 °F 55.4 °F 94% 30.16 in 10.0 mi Calm Calm - N/A   Mostly Cloudy
5:54 AM 57.9 °F 55.9 °F 93% 30.11 in 10.0 mi Calm Calm - N/A   Overcast
6:51 AM 57.2 °F 55.4 °F 94% - 10.0 mi Calm Calm - N/A   Mostly Cloudy
6:54 AM 57.0 °F 55.9 °F 96% - 10.0 mi Calm Calm - N/A   Mostly Cloudy
7:01 AM 57.2 °F 55.4 °F 94% - 10.0 mi SE 3.5 mph - N/A   Mostly Cloudy
7:13 AM 57.2 °F 55.4 °F 94% - 10.0 mi SSE 3.5 mph - N/A   Overcast
7:34 AM 57.2 °F 55.4 °F 94% 30.16 in 10.0 mi Calm Calm - N/A   Overcast
7:54 AM 57.9 °F 55.9 °F 93% 30.12 in 10.0 mi ESE 3.5 mph - N/A   Overcast
8:05 AM 59.0 °F 57.2 °F 94% 30.17 in 10.0 mi Calm Calm - N/A   Overcast
8:54 AM 62.1 °F 59.0 °F 90% 30.12 in 10.0 mi South 5.8 mph - N/A   Mostly Cloudy
9:03 AM 62.6 °F 59.0 °F 88% 30.17 in 10.0 mi South 6.9 mph - N/A   Mostly Cloudy
9:54 AM 63.0 °F 59.0 °F 87% 30.12 in 10.0 mi South 6.9 mph - N/A   Overcast
10:54 AM 64.9 °F 57.9 °F 78% 30.12 in 10.0 mi SE 6.9 mph - N/A   Overcast
11:18 AM 64.4 °F 57.2 °F 77% 30.17 in 10.0 mi SSE 8.1 mph - N/A   Overcast
11:25 AM 66.2 °F 57.2 °F 73% 30.17 in 10.0 mi SSE 8.1 mph - N/A   Overcast
11:40 AM 68.0 °F 57.2 °F 68% 30.17 in 10.0 mi SSE 9.2 mph - N/A   Overcast
11:54 AM 68.0 °F 55.0 °F 63% 30.12 in 10.0 mi SSE 15.0 mph 20.7 mph N/A   Overcast
12:54 PM 70.0 °F 55.9 °F 61% 30.10 in 10.0 mi South 10.4 mph - N/A   Mostly Cloudy
1:54 PM 71.1 °F 54.0 °F 55% 30.08 in 10.0 mi South 17.3 mph 23.0 mph N/A   Mostly Cloudy
2:54 PM 71.1 °F 54.0 °F 55% 30.07 in 10.0 mi SSE 15.0 mph - N/A   Mostly Cloudy
3:54 PM 72.0 °F 52.0 °F 49% 30.03 in 10.0 mi SSE 17.3 mph 23.0 mph N/A   Mostly Cloudy
4:54 PM 72.0 °F 54.0 °F 53% 30.00 in 10.0 mi South 12.7 mph 21.9 mph N/A   Mostly Cloudy
5:54 PM 71.1 °F 54.0 °F 55% 29.99 in 10.0 mi SSE 12.7 mph 18.4 mph N/A   Overcast
6:54 PM 71.1 °F 55.9 °F 59% 29.97 in 10.0 mi SSE 6.9 mph - N/A   Overcast
7:54 PM 70.0 °F 55.9 °F 61% 29.97 in 10.0 mi SSE 9.2 mph - N/A   Overcast
8:54 PM 69.1 °F 57.9 °F 68% 29.97 in 10.0 mi SSE 8.1 mph - N/A   Overcast
9:54 PM 68.0 °F 60.1 °F 76% 29.96 in 10.0 mi SE 9.2 mph 18.4 mph 0.00 in Rain Light Rain
10:54 PM 66.9 °F 60.1 °F 79% 29.95 in 10.0 mi SSE 8.1 mph - 0.00 in   Overcast
11:54 PM 66.0 °F 60.1 °F 81% 29.92 in 10.0 mi SSE 10.4 mph - 0.00 in Rain Light Rain